Location: İstanbul
(41.0082°N, 28.9784°E)
Time: 02:10:00
(UTC+03:00)

DOVE 4 - Visible Passes

Search period start: 24 April 2024 00:00
Search period end: 04 May 2024 00:00
Orbit: 580 x 781 km, 97.7° (Epoch: 23 April)

Date Brightness Start Highest point End Pass type
(mag) Time Alt. Az. Time Alt. Az. Time Alt. Az.
24 Apr ? 22:56:07 10° N 22:59:18 47° N 22:59:18 47° N visible
25 Apr ? 21:55:27 10° NE 21:57:32 21° ENE 21:57:32 21° ENE visible
25 Apr ? 23:32:38 10° N 23:35:59 29° WNW 23:35:59 29° WNW visible
26 Apr ? 22:30:58 10° NNE 22:34:13 45° NE 22:34:13 45° NE visible
27 Apr ? 00:10:03 10° NW 00:12:19 14° WNW 00:12:40 14° WNW visible
27 Apr ? 21:31:22 10° ENE 21:32:26 13° ENE 21:32:26 13° ENE visible
27 Apr ? 23:07:05 10° N 23:10:52 51° NW 23:10:52 51° NW visible
28 Apr ? 22:06:03 10° NNE 22:09:04 30° ENE 22:09:04 30° ENE visible
28 Apr ? 23:43:45 10° NNW 23:47:21 24° WNW 23:47:31 24° WNW visible
29 Apr ? 22:41:45 10° NNE 22:45:43 67° NNE 22:45:43 67° NNE visible
30 Apr ? 00:21:54 10° NW 00:23:05 11° WNW 00:24:10 10° WNW visible
30 Apr ? 21:41:30 10° NE 21:43:55 18° ENE 21:43:55 18° ENE visible
30 Apr ? 23:18:00 10° N 23:22:18 42° WNW 23:22:21 42° WNW visible
01 May ? 22:16:38 10° NNE 22:20:31 43° E 22:20:31 43° E visible
01 May ? 23:54:52 10° NNW 23:58:07 19° WNW 23:58:57 19° W visible
02 May ? 21:18:14 10° ENE 21:18:41 10° E 21:18:41 10° E visible
02 May ? 22:52:29 10° N 22:57:06 77° WNW 22:57:06 77° WNW visible
03 May ? 21:51:46 10° NE 21:55:16 25° E 21:55:16 25° E visible
03 May ? 23:28:52 10° N 23:33:01 33° WNW 23:33:42 32° W visible
